Regional Weather Roundup
Issued by NWS Bismarck, ND

Home | Current Version | Previous Version | Text Only | Print | Product List | Glossary On
Versions: 1 2 3 4 5 6 7 8 9 10 11 12 13 14 15 16 17 18 19 20 21 22 23 24 25 26 27 28 29 30 31 32 33 34 35 36 37 38 39 40 41 42 43 44 45 46 47 48 49 50
188
ASUS43 KBIS 060310
RWRBIS

NWR BROADCAST TEXT
NATIONAL WEATHER SERVICE BISMARCK ND
900 PM CST FRI FEB 05 2016

NOTE: "FAIR" INDICATES FEW OR NO CLOUDS BELOW 12,000 FEET WITH NO
SIGNIFICANT WEATHER AND/OR OBSTRUCTIONS TO VISIBILITY.


CITY           SKY/WX    TMP DP  RH WIND       PRES   REMARKS
WILLISTON      CLOUDY    25  21  85 SW3       29.98F
MINOT          CLOUDY    32  21  64 SW8       30.00S
MINOT AFB      CLOUDY    26  23  89 CALM      29.99F
BISMARCK       CLEAR     28  22  78 CALM      30.07F
DICKINSON      CLOUDY    31  22  69 SW13      30.01F
GARRISON         N/A     26  21  81 CALM      30.02F
HETTINGER ARPT CLOUDY    28  20  71 W6        30.08F
JAMESTOWN      CLEAR     22  16  78 S3        30.07F
BEACH          FAIR      32  23  69 SW12      30.06S
CARRINGTON     FAIR      25  25 100 SW9       30.06F WCI  15
HAZEN          FAIR      25  21  86 W3        30.06S
LINTON         FAIR      21  21 100 SE3       30.11F
MANDAN         FAIR      28  23  80 SW10      30.06F WCI  19
OAKES          FAIR      21  19  93 S7        30.12F WCI  13
RUGBY          FAIR      23  19  86 S7        30.03S WCI  15
STANLEY        FAIR      25  25 100 S5        30.00F WCI  19
TIOGA          FAIR      27  27 100 SW12      30.01F WCI  16
WATFORD CITY   FAIR      25  23  93 W5        30.00F WCI  19
$$

CITY           SKY/WX    TMP DP  RH WIND       PRES   REMARKS
GRAND FORKS    CLOUDY    18  14  84 S7        30.09F WCI   9
GRAND FORKS AF CLOUDY    18  15  86 SW7       30.08F WCI   9
DEVILS LAKE    CLOUDY    22  18  85 S7        30.04F WCI  13
FARGO          CLOUDY    19  15  84 S5        30.13S WCI  12
CAVALIER       FAIR      16  14  93 S6        30.06F WCI   7
GRAFTON        FAIR      12  12 100 S7        30.09F WCI   2
GWINNER          N/A     12  12 100 S8        30.13F WCI   1
LANGDON        FAIR      18  14  86 SW9       30.02F WCI   6
ROLLA          CLOUDY    23  18  80 S5        30.00F WCI  17
WALHALLA       FAIR      18  18 100 SE5       30.05F WCI  11
$$

CITY           SKY/WX    TMP DP  RH WIND       PRES   REMARKS
ABERDEEN       CLEAR     23  18  81 S5        30.15F WCI  17
MOBRIDGE       CLEAR     29  21  72 SE7       30.09F
BUFFALO          N/A     30  21  69 W10       30.02F
RAPID CITY     CLEAR     23  18  81 CALM      30.16S
GLASGOW        CLOUDY    36  26  67 SW8       29.94F
SIDNEY         CLEAR     28  21  74 S9        30.00F WCI  20
WOLF POINT     CLOUDY    26  23  88 CALM      29.97F
GLENDIVE       CLEAR     30  23  74 W9        30.04F
MILES CITY     CLEAR     36  23  59 SW12      30.05F
BAKER          CLOUDY    34  20  56 SW12      30.05F
$$

CITY           SKY/WX    TMP DP  RH WIND       PRES   REMARKS
BILLINGS       CLEAR     36  12  37 SW22      30.10F
GREAT FALLS    CLOUDY    42  23  46 SW25      30.04F
REGINA         PTCLDY    23  19  86 SE9       29.87F WCI  13
ESTEVAN        PTCLDY    21  19  93 S7        29.94F WCI  13
$$





USA.gov is the U.S. government's official web portal to all federal, state and local government web resources and services.